Grand Junction, CO

3:22 AM MST on December 09, 2019 (GMT -0700)
Walker

Weather History for KGJT - March, 2019

Change the Weather History Date:

Tuesday, March 26, 2019

  Actual Average Record
Temperature  
Mean Temperature 51 °F 46 °F  
Max Temperature 66 °F 59 °F 81 °F (1971)
Min Temperature 35 °F 33 °F 16 °F (1917)
Degree Days  
Heating Degree Days 14 19  
Month to date heating degree days 567 563  
Since 1 July heating degree days 5022 4942  
Cooling Degree Days 0 0  
Month to date cooling degree days 0 0  
Year to date cooling degree days 0 0  
Moisture  
Dew Point 29 °F    
Average Humidity 47    
Maximum Humidity 70    
Minimum Humidity 24    
Precipitation  
Precipitation 0.00 in 0.04 in 0.38 in (1975)
Month to date precipitation 2.28 0.75  
Year to date precipitation 3.72 1.87  
Snow  
Snow 0.00 in 0.10 in 4.00 in (1975)
Month to date snowfall 0.0 2.2  
Since 1 July snowfall 17.4 17.7  
Snow Depth 0.00 in    
Sea Level Pressure  
Sea Level Pressure 30.06 in    
Wind  
Wind Speed 10 mph (East)    
Max Wind Speed 22 mph    
Max Gust Speed 28 mph    
Visibility 10 miles    
Events      
T = Trace of Precipitation, MM = Missing Value Source: NWS Daily Summary

Daily Weather History Graph

Daily Weather History Graph

Search for Another Location

Airport or City:

Astronomy

Mar. 26, 2019 Rise Set
Actual Time 7:08 AM MDT 7:31 PM MDT
Civil Twilight 6:41 AM MDT 7:58 PM MDT
Nautical Twilight 6:10 AM MDT 8:30 PM MDT
Astronomical Twilight 5:38 AM MDT 9:02 PM MDT
Moon 12:57 AM MDT (3/26) 11:01 AM MDT (3/26)
Length of Visible Light 13h 17m
Length of Day
12h 23m
Waning Gibbous, 64% of the Moon is Illuminated
Mar 26
Waning Gibbous
Mar 27
Last Quarter
Apr 5
New
Apr 12
First Quarter
Apr 19
Full

Hourly Weather History & Observations

Time (MDT) Temp. Windchill Dew Point Humidity Pressure Visibility Wind Dir Wind Speed Gust Speed Precip Events Conditions
12:53 AM 42.1 °F 36.6 °F 30.0 °F 62% 30.19 in 10.0 mi East 9.2 mph - N/A   Clear
1:53 AM 39.9 °F 35.1 °F 30.0 °F 68% 30.19 in 10.0 mi East 6.9 mph - N/A   Clear
2:53 AM 41.0 °F 34.3 °F 27.0 °F 57% 30.16 in 10.0 mi ESE 11.5 mph - N/A   Clear
3:53 AM 37.0 °F 28.1 °F 27.0 °F 67% 30.17 in 10.0 mi ESE 15.0 mph - N/A   Clear
4:53 AM 39.9 °F 32.1 °F 25.0 °F 55% 30.15 in 10.0 mi East 13.8 mph - N/A   Clear
5:53 AM 41.0 °F 33.5 °F 25.0 °F 53% 30.15 in 10.0 mi East 13.8 mph - N/A   Clear
6:53 AM 37.9 °F 30.5 °F 25.0 °F 60% 30.17 in 10.0 mi SE 11.5 mph - N/A   Clear
7:53 AM 39.0 °F 29.9 °F 26.1 °F 60% 30.18 in 10.0 mi East 17.3 mph - N/A   Clear
8:53 AM 42.1 °F 34.2 °F 28.0 °F 58% 30.18 in 10.0 mi ESE 16.1 mph - N/A   Clear
9:53 AM 46.9 °F - 28.0 °F 48% 30.16 in 10.0 mi ESE 17.3 mph - N/A   Clear
10:53 AM 53.1 °F - 27.0 °F 37% 30.12 in 10.0 mi East 17.3 mph 25.3 mph N/A   Clear
11:53 AM 55.0 °F - 28.0 °F 35% 30.08 in 10.0 mi ESE 18.4 mph - N/A   Clear
12:53 PM 59.0 °F - 27.0 °F 29% 30.04 in 10.0 mi ESE 11.5 mph - N/A   Clear
1:53 PM 62.1 °F - 28.9 °F 29% 30.01 in 10.0 mi Variable 4.6 mph - N/A   Clear
2:53 PM 64.9 °F - 28.9 °F 26% 29.97 in 10.0 mi WNW 11.5 mph - N/A   Clear
3:53 PM 64.9 °F - 27.0 °F 24% 29.96 in 10.0 mi NW 5.8 mph - N/A   Clear
4:53 PM 64.9 °F - 28.0 °F 25% 29.93 in 10.0 mi NW 10.4 mph - N/A   Clear
5:53 PM 64.0 °F - 28.9 °F 27% 29.93 in 10.0 mi NW 8.1 mph - N/A   Clear
6:53 PM 61.0 °F - 33.1 °F 35% 29.93 in 10.0 mi NNW 8.1 mph - N/A   Clear
7:53 PM 55.0 °F - 34.0 °F 45% 29.96 in 10.0 mi North 6.9 mph - N/A   Clear
8:53 PM 52.0 °F - 37.0 °F 57% 29.96 in 10.0 mi Calm Calm - N/A   Clear
9:53 PM 48.9 °F - 37.0 °F 64% 29.97 in 10.0 mi East 3.5 mph - N/A   Clear
10:53 PM 50.0 °F - 36.0 °F 59% 29.95 in 10.0 mi East 4.6 mph - N/A   Clear
11:53 PM 50.0 °F - 34.0 °F 54% 29.94 in 10.0 mi East 5.8 mph - N/A   Clear